This is the latest recevied weather packets stored in our database for station/object AF5AA. If no packets are shown the sender has not sent any weather packets the latest 10 day(s).
| Time | Temp. | Humidity | Pressure | Rain* | Wind** | Luminosity | Snow |
|---|---|---|---|---|---|---|---|
| 1777735810 | 17.22° C | 84% | 1021.1 hPa | 0 mm | - | 48 W/m² | - |
| 1777735507 | 17.22° C | 80% | 1020.7 hPa | 0 mm | - | 29 W/m² | - |
| 1777735205 | 17.22° C | 78% | 1020.7 hPa | 0 mm | - | 28 W/m² | - |
| 1777734901 | 17.22° C | 81% | 1020.7 hPa | 0 mm | - | 27 W/m² | - |
| 1777734599 | 16.67° C | 81% | 1020.7 hPa | 0 mm | - | 40 W/m² | - |
| 1777734296 | 16.67° C | 89% | 1020.7 hPa | 0 mm | - | 24 W/m² | - |
| 1777733991 | 16.67° C | 85% | 1020.8 hPa | 0 mm | - | 26 W/m² | - |
| 1777733689 | 16.11° C | 83% | 1020.5 hPa | 1.78 mm | - | 23 W/m² | - |
| 1777733385 | 16.11° C | 86% | 1020.7 hPa | 1.78 mm | - | 37 W/m² | - |
| 1777733082 | 15.56° C | 90% | 1020.5 hPa | 0 mm | - | 28 W/m² | - |
| 1777732778 | 15.56° C | 90% | 1020.5 hPa | 0 mm | - | 22 W/m² | - |
| 1777732475 | 15° C | 95% | 1020.4 hPa | 0 mm | - | 48 W/m² | - |
| 1777732172 | 14.44° C | 99% | 1020.6 hPa | 0 mm | - | 21 W/m² | - |
| 1777731870 | 14.44° C | 99% | 1020.5 hPa | 0 mm | - | 21 W/m² | - |
| 1777731566 | 14.44° C | 99% | 1020.3 hPa | 0 mm | - | 21 W/m² | - |
| 1777731264 | 13.89° C | 99% | 1020.2 hPa | 0 mm | - | 21 W/m² | - |
| 1777730961 | 13.89° C | 99% | 1020.2 hPa | 0 mm | - | 36 W/m² | - |
| 1777730660 | 13.33° C | 99% | 1020.2 hPa | 0 mm | - | 22 W/m² | - |
| 1777730356 | 13.33° C | 99% | 1020.3 hPa | 0 mm | - | 19 W/m² | - |
| 1777730052 | 13.33° C | 99% | 1020.5 hPa | 0 mm | - | 20 W/m² | - |
| 1777729748 | 12.78° C | 99% | 1020.2 hPa | 0 mm | - | 18 W/m² | - |
| 1777729446 | 12.78° C | 99% | 1020.4 hPa | 0 mm | - | 18 W/m² | - |
| 1777729142 | 12.22° C | 99% | 1020 hPa | 0 mm | - | 26 W/m² | - |
| 1777728839 | 12.22° C | 99% | 1020.1 hPa | 0 mm | - | 16 W/m² | - |
| 1777728535 | 12.22° C | 99% | 1020.1 hPa | 0 mm | - | 16 W/m² | - |
* Rain latest hour (hover to see other rain measurements)
** Current wind speed in m/s (hover to see current wind gust speed)